SL-12 R/B(AUX MOTOR), 37143

Orbit data source: Space-Track

SL-12 R/B(AUX MOTOR), 37143 is space debris originally from a launch on Thu, 02 Sep 2010 UTC launched from the Tyuratam Missile And Space Complex (TTMTR). Debris objects in space refer to the collection of defunct objects orbiting the Earth. Examples of debris include non-operational satellites, rocket bodies, and fragments generated from explosions, collisions, or faulty payload assembly.

Loading next visibility...
Identifier
37143, 2010-041G
Orbit
Active
Country
Flag of CISCIS
Related business
Manufacturer
RKKE
Mission
Spacecraft
Bus & Motor
SOZ, Unknown motor
Mass
56 kg wet, 56 kg dry
Launch date (UTC)
2010-09-02 (16 years ago)
Launch vehicle
Unknown
Launch site
Tyuratam Missile And Space Complex (TTMTR)
Object type
Payload
Rocket body
Debris
Shape & HBR
Cyl, 0.6 m
Radar Cross Section
0.660 m², Medium (>0.1 m² and < 1m²)

Expand to show TLE details & history
Last TLE update: 1 day ago

TLE from 1 day ago
0 SL-12 R/B(AUX MOTOR)
1 37143U 10041G   26206.12142962  .00043296  00000-0  23523-2 0  9998
2 37143  64.4401 125.6908 3216680 272.2465  51.9836  8.91972377285453
Epoch: 2026-07-25T02:54Z
TLE epoch observation values (Epoch: 2026-07-25T02:54:51.519Z)
Latitude
-0.00003°
Longitude
139.13787°
Altitude
2,323.587 km
Speed
7.145 km/s
True Right ascension
08h 22m 45s
True Declination
0° 00' 00"
Sunlit
Object was in daylight at epoch
Visualization orbit readout
Latitude
Unknown
Longitude
Unknown
Altitude
Unknown
Speed
Unknown
Apparent Right ascension
Unknown
Apparent Declination
Unknown
Sunlit
N/A
Visualization observer readout
Local Sidereal Time
23:19:22
Azimuth
Unknown
Elevation
Unknown
Doppler factor
Unknown
Orbital elements
Apogee altitude
6,600.786 km
Perigee altitude
283.157 km
Semi-major axis
9,820.108 km
Eccentricity
0.32167
Inclination
64.4401°
RAAN
125.6908°
Arg. of periapsis
272.2465°
True anomaly
87.85176°
Mean anomaly
51.9836°
Eccentric anomaly
69.21427°
Mean motion
2.23033 °/min
Orbital period
161.41 mins
BSTAR
0.0023523
Loading maneuver chart data...
Computing Atmospheric mass density...
Loading historical data...
Loading historical data...
Loading historical data...
Loading historical data...
Loading historical data...
Loading historical data...
Loading historical data...

Documentation

Showing up to 5 results
|